Regional Weather Roundup
Issued by NWS

Home | Current Version | Previous Version | Graphics & Text | Print | Product List | Glossary On
Versions: 1 2 3 4 5 6 7 8 9 10 11 12 13 14 15 16 17 18 19 20 21 22 23 24 25 26 27 28 29 30 31 32 33 34 35 36 37 38 39 40 41 42 43 44 45 46 47 48 49 50
000
ASUS43 KLMK 212102
RWRKY
KENTUCKY REGIONAL WEATHER ROUNDUP
NATIONAL WEATHER SERVICE LOUISVILLE KY
500 PM EDT SUN SEP 21 2014

NOTE "FAIR" INDICATES FEW OR NO CLOUDS BELOW 12,000 FEET
WITH NO SIGNIFICANT WEATHER AND/OR OBSTRUCTIONS TO VISIBILITY.

KYZ001>023-026-027-061>063-070>075-212200-
WESTERN AND SOUTH CENTRAL KENTUCKY

CITY           SKY/WX    TMP DP  RH WIND       PRES   REMARKS
PADUCAH        SUNNY     83  51  33 NW13      29.97S
HENDERSON      SUNNY     81  48  32 W12G20    29.95F
OWENSBORO      SUNNY     79  49  34 NW14      29.95R
HOPKINSVILLE   SUNNY     82  56  40 NW15G23   29.94S
BOWLING GREEN  SUNNY     82  58  43 NW9G18    29.92S
GLASGOW        NOT AVBL
$$

KYZ024-025-028>034-038-045-046-053-212200-
NORTH CENTRAL KENTUCKY

CITY           SKY/WX    TMP DP  RH WIND       PRES   REMARKS
LOUISVILLE/SDF MOSUNNY   79  47  32 NW20G26   29.91R
LOUISVILLE/LOU SUNNY     79  47  32 NW18G29   29.91R
FORT KNOX      SUNNY     77  50  38 W13       29.91S
$$

KYZ035>037-039>044-047>052-055>060-089>105-212200-
NORTHEAST KENTUCKY

CITY           SKY/WX    TMP DP  RH WIND       PRES   REMARKS
LEXINGTON      SUNNY     79  44  28 W20G29    29.89R
COVINGTON      MOSUNNY   73  47  39 NW18G29   29.87R
FRANKFORT      SUNNY     77  46  33 W10G21    29.88S
$$

KYZ054-064>069-076>088-106>120-212200-
SOUTHEAST KENTUCKY

CITY           SKY/WX    TMP DP  RH WIND       PRES   REMARKS
JACKSON        PTSUNNY   75  67  76 VRB3      29.85F
LONDON         PTSUNNY   81  64  56 W15       29.89F
SOMERSET       CLOUDY    77  63  61 W6        29.90S
MIDDLESBORO    MOSUNNY   78  67  67 W5        29.90F
MONTICELLO     PTCLDY    83  66  56 SW10G16   29.91F
$$




USA.gov is the U.S. government's official web portal to all federal, state and local government web resources and services.